O3B FM9 (40351 NORAD) Tracking and Keplerian Element Data

This shows tracking and keplerian element data for the satellite.

Feedback or suggestion? Click here.




ElementValue
Catalog40351
NameO3B FM9
Epoch Orbit18503
Epoch Day32.70007369
Epoch Year2025
RAAN350.6064
Inclination0.0495
Eccentricity0.0002752
Argument of Perigee320.2001
Mean Anonmoly49.1651
Mean Motion5.00115355
Decay Rate-1.2E-07
L11 40351U 14083D 25032.70007369 -.00000012 00000+0 00000+0 0 9995
L22 40351 0.0495 350.6064 0002752 320.2001 49.1651 5.00115355185039



Live tracking and technical data element details for O3B FM9 (NORAD 40351). O3B FM9 can be tracked NOW for your location showing map with azimuth and elevation plus other details from your city location.







IsCatalogInMostPopularTable: catalog: 40351, numindb: 692
Update: records affected: 1



GetName: 40351 O3B FM9

Hit Count: updated at: Wed, 18 Jun 2025 05:11:36 GMT